This demonstration page uses our WeatherBlox Daily Observations layout. Learn more.

38.88101, -77.10428

Hourly Observations for June 19, 2016

Temp ( °F °C ) Dew Point ( °F °C ) Humidity (%) Winds ( mph kmh ) Pressure ( in mb ) Visibility ( mi km ) Precip ( " mm )
12:52 am 00:52 Partly Cloudy 69 20.6 56 13.3 63 63 SW 7 11 30.33 1027 10 16.0934 0 0
1:52 am 01:52 Mostly Cloudy 68 20 54 12.2 61 61 SSW 6 9 30.33 1027 10 16.0934 0 0
2:52 am 02:52 Mostly Cloudy 69 20.6 53 11.7 57 57 SSW 7 11 30.33 1027 10 16.0934 0 0
3:52 am 03:52 Mostly Cloudy 67 19.4 52 11.1 59 59 SSW 5 7 30.33 1027 10 16.0934 0 0
4:52 am 04:52 Mostly Cloudy 66 18.9 52 11.1 61 61 SSW 8 13 30.32 1027 10 16.0934 0 0
5:52 am 05:52 Mostly Cloudy 66 18.9 51 10.6 59 59 Calm 30.34 1027 10 16.0934 0 0
6:52 am 06:52 Mostly Cloudy 68 20 52 11.1 57 57 WSW 5 7 30.34 1028 10 16.0934 0 0
7:52 am 07:52 Mostly Cloudy 71 21.7 54 12.2 55 55 W 3 6 30.36 1028 10 16.0934 0 0
8:52 am 08:52 Mostly Cloudy 73 22.8 56 13.3 55 55 SE 6 9 30.37 1028 10 16.0934 0 0
9:52 am 09:52 Mostly Cloudy 76 24.4 56 13.3 50 50 Calm 30.36 1028 10 16.0934 0 0
10:52 am 10:52 Mostly Cloudy 80 26.7 56 13.3 44 44 ESE 3 6 30.36 1028 10 16.0934 0 0
11:52 am 11:52 Mostly Cloudy 83 28.3 58 14.4 43 43 S 9 15 30.35 1028 10 16.0934 0 0
12:52 pm 12:52 Partly Cloudy 87 30.6 54 12.2 32 32 SSE 9 15 30.33 1027 10 16.0934 0 0
1:52 pm 13:52 Mostly Cloudy 87 30.6 51 10.6 29 29 ESE 8 13 30.31 1026 10 16.0934 0 0
2:52 pm 14:52 Mostly Cloudy 88 31.1 52 11.1 29 29 VRB 7 11 30.29 1026 10 16.0934 0 0
3:52 pm 15:52 Mostly Cloudy 86 30 54 12.2 33 33 SSW 10 17 30.27 1025 10 16.0934 0 0
4:52 pm 16:52 Mostly Cloudy 90 32.2 54 12.2 29 29 WSW 10 17 30.27 1025 10 16.0934 0 0
5:52 pm 17:52 Mostly Cloudy 87 30.6 54 12.2 32 32 SW 15 24 30.25 1024 10 16.0934 0 0
6:52 pm 18:52 Mostly Cloudy 87 30.6 53 11.7 31 31 SSW 12 19 30.25 1024 10 16.0934 0 0
7:52 pm 19:52 Mostly Cloudy 84 28.9 55 12.8 37 37 SW 10 17 30.25 1025 10 16.0934 0 0
8:52 pm 20:52 Mostly Cloudy 81 27.2 56 13.3 42 42 SW 8 13 30.26 1025 10 16.0934 0 0
9:52 pm 21:52 Mostly Cloudy 77 25 58 14.4 52 52 SSW 7 11 30.27 1025 10 16.0934 0 0
10:52 pm 22:52 Mostly Cloudy 77 25 56 13.3 48 48 SW 7 11 30.27 1025 10 16.0934 0 0
11:52 pm 23:52 Mostly Cloudy 77 25 54 12.2 45 45 WSW 8 13 30.27 1025 10 16.0934 0 0

Powered by AerisWeather